{"data":{"norad_id":65188,"intl_designator":"2025-175Q","name":"STARLINK-34972","alt_names":[],"object_type":"PAYLOAD","status":"ACTIVE","operator":null,"country":"US","launch_date":"2025-08-14","launch_site_code":"AFWTR","launch_vehicle":null,"mission":null,"orbit_class":"UNKNOWN","rcs_meters":null,"size_class":null,"mass_kg":null,"dimensions":null,"purposes":["comms"],"wikipedia_slug":null,"has_3d_model":false,"image_url":null,"decayed_at":null,"tle_current":{"epoch":"2026-05-25T03:10:01.604928Z","epoch_age_seconds":60756,"freshness":"FRESH","line1":"1 65188U 25175Q   26145.13196302  .00004813  00000+0  33732-3 0  9997","line2":"2 65188  97.4541  17.6415 0002111  69.8518 290.2936 15.05659489 44119","mean_motion":15.05659489,"eccentricity":0.0002111,"inclination_deg":97.4541,"raan_deg":17.6415,"arg_perigee_deg":69.8518,"mean_anomaly_deg":290.2936,"bstar":0.00033732,"rev_number":4411,"period_min":95.63915417266,"perigee_km":548.01962724427,"apogee_km":550.94446800618,"semimajor_km":6927.6190476252,"source":"CELESTRAK","updated_at":"2026-05-25T13:38:20.715136Z"}}}